Regional Weather Roundup
Issued by NWS

Home | Current Version | Previous Version | Graphics & Text | Print | Product List | Glossary On
Versions: 1 2 3 4 5 6 7 8 9 10 11 12 13 14 15 16 17 18 19 20 21 22 23 24 25 26 27 28 29 30 31 32 33 34 35 36 37 38 39 40 41 42 43 44 45 46 47 48 49 50
000
ASUS43 KFSD 310602
RWRSD

WEATHER ROUNDUP FOR SOUTH DAKOTA
NATIONAL WEATHER SERVICE SIOUX FALLS SD
100 AM CDT TUE MAY 31 2016

NOTE: "FAIR" INDICATES FEW OR NO CLOUDS BELOW 12,000 FEET WITH NO
SIGNIFICANT WEATHER AND/OR OBSTRUCTIONS TO VISIBILITY.


SDZ001>005-009-010-012>017-310700-
NORTHWEST AND NORTH CENTRAL SOUTH DAKOTA

CITY           SKY/WX    TMP DP  RH WIND       PRES   REMARKS
BUFFALO          N/A     46  40  79 W16       29.93S
FAITH            N/A     49  44  83 W13       29.97R
MOBRIDGE       CLOUDY    57  52  83 NW16      29.83S
$$

SDZ012>016-024>037-041>051-057-063-072>074-310700-
SOUTHWEST AND SOUTH CENTRAL SOUTH DAKOTA

CITY           SKY/WX    TMP DP  RH WIND       PRES   REMARKS
RAPID CTY ARPT CLOUDY    52  41  66 NW17      30.04S
PIERRE         CLOUDY    56  52  86 W18G25    29.88R
CUSTER         CLOUDY    46  29  51 VRB7      30.11R
PHILIP         PTCLDY    54  46  74 NW14      29.97F
PINE RIDGE     CLOUDY    51  49  92 W6        30.06S
WINNER         FAIR      59  54  83 W14       29.90F
$$

SDZ004>011-016>023-039-040-310700-
NORTHEAST SOUTH DAKOTA

CITY           SKY/WX    TMP DP  RH WIND       PRES   REMARKS
ABERDEEN       CLOUDY    57  55  93 W5        29.78F
WATERTOWN      CLOUDY    61  57  87 NE5       29.76F
SISSETON         N/A     59  58  96 E15       29.74F
$$

SDZ017-020-022-023-036>040-048>070-310700-
SOUTHEAST SOUTH DAKOTA

CITY           SKY/WX    TMP DP  RH WIND       PRES   REMARKS
SIOUX FALLS    TSTM      62  58  86 W9G22     29.84R FOG
HURON          CLOUDY    61  57  87 NW14G20   29.80R
MITCHELL       LGT RAIN  63  59  87 W10       29.82R
YANKTON        CLOUDY    63  57  82 W6        29.84S
$$

ABBREVIATIONS USED IN REMARKS
   TC - TEMPERATURE IN CELSIUS
  WCI - WIND CHILL INDEX
   HX - HEAT INDEX
  VSB - VISIBILITY





USA.gov is the U.S. government's official web portal to all federal, state and local government web resources and services.